Kiana, AK

3:45 AM AKDT on August 19, 2017 (GMT -0800)
Baker Memorial

Weather History for PAIK - November, 2012

Change the Weather History Date:

Saturday, November 3, 2012

  Actual Average (PASK) Record (PASK)
Temperature  
Mean Temperature 8 °F -  
Max Temperature -2 °F 15 °F 35 °F (2003)
Min Temperature -2 °F 6 °F -14 °F (1999)
Degree Days  
Heating Degree Days 58    
Moisture  
Dew Point -3 °F    
Average Humidity 57    
Maximum Humidity 79    
Minimum Humidity 47    
Precipitation  
Precipitation 0.00 in - - ()
Sea Level Pressure  
Sea Level Pressure 30.25 in    
Wind  
Wind Speed 8 mph (North)    
Max Wind Speed 18 mph    
Max Gust Speed 29 mph    
Visibility 10 miles    
Events      
Averages and records for this station are not official NWS values.
T = Trace of Precipitation, MM = Missing Value Source: NWS Daily Summary

Daily Weather History Graph

Daily Weather History Graph

Search for Another Location

Airport or City:

Trip Planner

Search our weather history database for the weather conditions in past years. The results will help you decide how hot, cold, wet, or windy it might be!

Date:

Astronomy

Nov. 03, 2012 Rise Set
Actual Time 10:55 AM AKDT 5:54 PM AKDT
Civil Twilight 9:51 AM AKDT 6:57 PM AKDT
Nautical Twilight 8:46 AM AKDT 8:02 PM AKDT
Astronomical Twilight 7:45 AM AKDT 9:03 PM AKDT
Moon 8:49 PM AKDT (11/3) 4:08 PM AKDT (11/3)
Length of Visible Light 9h 05m
Length of Day
6h 59m
Waning Gibbous, 79% of the Moon is Illuminated
Nov 3
Waning Gibbous
Nov 6
Last Quarter
Nov 13
New
Nov 20
First Quarter
Nov 28
Full

Hourly Weather History & Observations

Time (AKDT) Temp. Windchill Dew Point Humidity Pressure Visibility Wind Dir Wind Speed Gust Speed Precip Events Conditions
12:01 AM 15.1 °F 2.5 °F -2.0 °F 47% 30.24 in 10.0 mi North 10.4 mph - N/A   Clear
1:01 AM 14.0 °F -0.2 °F -2.0 °F 49% 30.24 in 10.0 mi North 12.7 mph 17.3 mph N/A   Clear
2:01 AM 14.0 °F 0.5 °F -2.0 °F 49% 30.25 in 10.0 mi North 11.5 mph 17.3 mph N/A   Clear
3:01 AM 14.0 °F -0.2 °F -2.9 °F 47% 30.24 in 10.0 mi NNE 12.7 mph 21.9 mph N/A   Clear
4:01 AM 12.9 °F 0.7 °F -2.9 °F 49% 30.25 in 10.0 mi NNE 9.2 mph 18.4 mph N/A   Clear
5:01 AM 12.9 °F -4.4 °F -2.9 °F 49% 30.24 in 10.0 mi North 18.4 mph 28.8 mph N/A   Clear
6:01 AM 12.9 °F -2.2 °F -2.9 °F 49% 30.23 in 10.0 mi NNE 13.8 mph 21.9 mph N/A   Clear
7:01 AM 8.1 °F -0.5 °F -2.9 °F 61% 30.25 in 10.0 mi WNW 4.6 mph - N/A   Clear
8:01 AM 8.1 °F -7.0 °F -2.9 °F 61% 30.25 in 10.0 mi NW 11.5 mph - N/A   Clear
9:01 AM 7.0 °F -4.5 °F -2.9 °F 64% 30.25 in 10.0 mi NNW 6.9 mph - N/A   Clear
10:01 AM 8.1 °F -3.2 °F -2.9 °F 61% 30.25 in 10.0 mi North 6.9 mph - N/A   Clear
11:01 AM 8.1 °F -0.5 °F -2.9 °F 61% 30.25 in 10.0 mi North 4.6 mph - N/A   Clear
12:01 PM 10.0 °F -2.9 °F -2.9 °F 56% 30.25 in 10.0 mi North 9.2 mph - N/A   Clear
1:01 PM 12.9 °F - -2.9 °F 49% 30.25 in 10.0 mi Calm Calm - N/A   Clear
2:01 PM 14.0 °F - -2.0 °F 49% 30.25 in 10.0 mi Calm Calm - N/A   Clear
3:01 PM 14.0 °F 8.2 °F -2.0 °F 49% 30.25 in 10.0 mi North 3.5 mph - N/A   Clear
4:01 PM 12.9 °F 5.2 °F -2.0 °F 51% 30.24 in 10.0 mi North 4.6 mph - N/A   Clear
5:01 PM 12.9 °F - -2.0 °F 51% 30.23 in 5.0 mi Calm Calm - N/A   Haze
6:01 PM 9.0 °F 0.6 °F -2.9 °F 59% 30.23 in 6.0 mi NNE 4.6 mph - N/A   Haze
7:01 PM 3.9 °F - -6.0 °F 64% 30.24 in 10.0 mi Calm Calm - N/A   Clear
8:01 PM 3.0 °F - -5.1 °F 69% 30.25 in 9.0 mi Calm Calm - N/A   Clear
9:01 PM -0.0 °F -7.9 °F -6.0 °F 76% 30.25 in 10.0 mi WNW 3.5 mph - N/A   Clear
10:01 PM -0.0 °F - -7.1 °F 72% 30.25 in 10.0 mi Calm Calm - N/A   Clear
11:01 PM -2.0 °F -16.6 °F -7.1 °F 79% 30.25 in 10.0 mi NW 8.1 mph - N/A   Clear